FW4331 Weather Reports


time (UTC)temp
C
wind
direction
speed
KPH
gust
KPH
rain 1hr
cm
rain 24hr
cm
rain mn
cm
humidity
%
barometer
mb
20260906020011 21 51 0.0 0.0 0.00 0.00 0.00 49 1011.3
20260906014508 21 51 0.0 0.0 0.00 0.00 0.00 49 1011.2
20260906013048 21 265 0.0 0.0 0.00 0.00 0.00 48 1011.0
20260906011505 21 265 0.0 0.0 0.00 0.00 0.00 48 1010.7
20260906010036 21 265 0.0 0.0 0.00 0.00 0.00 47 1010.5
20260906004501 21 265 0.0 0.0 0.00 0.00 0.00 46 1010.3
20260906003104 21 265 0.0 0.0 0.00 0.00 0.00 46 1010.3
20260906001558 22 266 0.0 0.0 0.00 0.00 0.00 46 1010.1
20260906000058 22 275 0.0 3.2 0.00 0.00 0.00 45 1010.2
20260905234554 22 264 0.0 3.2 0.00 0.00 0.00 46 1010.1
20260905233052 22 268 1.6 6.4 0.00 0.00 0.00 46 1010.1
20260905231550 22 257 0.0 3.2 0.00 0.00 0.00 46 1010.1
20260905230050 22 283 1.6 4.8 0.00 0.00 0.00 45 1009.9
20260905224551 23 290 0.0 6.4 0.00 0.00 0.00 45 1009.8
20260905223044 23 283 0.0 3.2 0.00 0.00 0.00 44 1009.8
20260905221541 23 268 0.0 4.8 0.00 0.00 0.00 44 1009.8
20260905220038 23 345 0.0 0.0 0.00 0.00 0.00 43 1009.8
20260905214536 23 269 0.0 0.0 0.00 0.00 0.00 44 1009.7
20260905213035 24 356 0.0 0.0 0.00 0.00 0.00 42 1009.5
20260905211536 24 360 0.0 1.6 0.00 0.00 0.00 39 1009.3
20260905210030 25 22 0.0 6.4 0.00 0.00 0.00 37 1009.2
20260905204535 26 13 4.8 9.7 0.00 1.98 0.00 30 1009.2
20260905203026 27 60 3.2 8.0 0.00 1.98 0.00 28 1009.2
20260905201523 27 61 3.2 9.7 0.00 1.98 0.00 26 1009.1
20260905200027 27 31 1.6 6.4 0.00 1.98 0.00 26 1009.2
20260905194554 27 44 1.6 6.4 0.00 1.98 0.00 26 1009.3
20260905193016 27 301 3.2 8.0 0.00 1.98 0.00 26 1009.3
20260905191511 26 53 1.6 9.7 0.00 1.98 0.00 28 1009.6
20260905190122 26 30 1.6 8.0 0.00 1.98 0.00 29 1009.7
20260905184515 26 335 1.6 4.8 0.00 1.98 0.00 31 1009.8
20260905183009 26 57 1.6 6.4 0.00 1.98 0.00 30 1009.9
20260905181601 26 26 0.0 9.7 0.00 1.98 0.00 31 1009.8
20260905180058 26 40 4.8 12.9 0.00 1.98 0.00 30 1009.9
20260905174556 26 354 1.6 12.9 0.00 1.98 0.00 31 1010.0
20260905173053 25 7 4.8 11.3 0.00 1.98 0.00 32 1010.3
20260905171550 25 37 0.0 8.0 0.00 1.98 0.00 34 1010.4
20260905170048 24 96 0.0 3.2 0.00 1.98 0.00 36 1010.5
20260905164547 24 17 0.0 1.6 0.00 1.98 0.00 37 1011.2
20260905163045 24 45 0.0 6.4 0.00 1.98 0.00 36 1011.2
20260905161542 24 345 0.0 6.4 0.00 1.98 0.00 36 1011.4
20260905160042 24 349 0.0 6.4 0.00 1.98 0.00 38 1011.5
20260905154600 25 3 0.0 6.4 0.00 1.98 0.00 37 1011.6
20260905153036 25 3 0.0 6.4 0.00 1.98 0.00 36 1011.4
20260905151536 25 71 1.6 6.4 0.00 1.98 0.00 35 1011.5
20260905150032 25 319 0.0 8.0 0.00 1.98 0.00 35 1011.8
20260905144534 25 45 6.4 11.3 0.00 1.98 0.00 33 1011.5
20260905143100 25 50 1.6 9.7 0.00 1.98 0.00 33 1011.4
20260905141528 25 9 4.8 9.7 0.00 1.98 0.00 32 1011.4
20260905140026 25 265 0.0 3.2 0.00 1.98 0.00 36 1011.2
20260905134521 25 11 0.0 1.6 0.00 1.98 0.00 33 1010.7
20260905133035 25 359 0.0 4.8 0.00 1.98 0.00 34 1010.7
20260905131516 25 6 0.0 4.8 0.00 1.98 0.00 33 1010.6
20260905130015 24 316 0.0 3.2 0.00 1.98 0.00 35 1010.6
20260905124606 23 29 0.0 0.0 0.00 1.98 0.00 41 1010.7
20260905123002 22 30 0.0 0.0 0.00 1.98 0.00 43 1010.7
20260905121603 22 31 0.0 3.2 0.00 1.98 0.00 42 1010.7
20260905120054 22 1 0.0 1.6 0.00 1.98 0.00 45 1010.5
20260905114551 21 1 0.0 1.6 0.00 1.98 0.00 47 1010.5
20260905113051 21 1 0.0 0.0 0.00 1.98 0.00 49 1010.5
20260905111634 20 1 0.0 0.0 0.00 1.98 0.00 49 1010.5
20260905110043 -17 0.0 0.0 0.00 1.98 0.00 1010.6
20260905104537 -17 0.0 0.0 0.00 1.98 0.00 1009.9
20260905103034 -17 0.0 0.0 0.00 1.98 0.00 1009.7
20260905101534 -17 0.0 0.0 0.00 1.98 0.00 1009.5
20260905100022 -17 13 0.0 3.2 0.00 1.98 0.00 1009.4
20260905094517 20 278 0.0 0.0 0.00 1.98 0.00 49 1009.4
20260905093016 20 277 0.0 0.0 0.00 1.98 0.00 49 1009.3
20260905091516 20 277 0.0 0.0 0.00 1.98 0.00 49 1009.4
20260905090017 21 277 0.0 0.0 0.00 1.98 0.00 49 1009.4
20260905084509 20 277 0.0 0.0 0.00 1.98 0.00 49 1009.4
20260905083008 20 277 0.0 0.0 0.00 1.98 0.00 48 1009.4
20260905081503 21 276 0.0 0.0 0.00 1.98 0.00 48 1009.6
20260905080117 21 276 0.0 0.0 0.00 1.98 0.00 48 1009.6
20260905074557 21 276 0.0 1.6 0.00 1.98 0.00 48 1009.8
20260905073058 21 276 0.0 0.0 0.00 1.98 0.00 48 1009.8
20260905071552 21 276 0.0 0.0 0.00 1.98 0.00 49 1009.9
20260905070049 21 276 0.0 0.0 0.00 1.98 0.00 48 1010.0
20260905064546 21 276 0.0 0.0 0.00 1.98 0.00 48 1010.1
20260905063043 21 276 0.0 1.6 0.00 1.98 0.00 48 1010.3
20260905061538 21 266 0.0 1.6 0.00 1.98 0.00 49 1010.4
20260905060036 21 269 0.0 0.0 0.00 1.98 0.00 49 1010.8
20260905054537 21 269 0.0 0.0 0.00 2.01 0.00 48 1010.8
20260905053030 21 269 0.0 0.0 0.00 2.01 0.00 48 1011.0
20260905051534 21 269 0.0 1.6 0.00 2.01 0.00 48 1011.2
20260905050021 21 269 0.0 1.6 0.00 2.01 0.00 49 1011.2
20260905044520 22 269 0.0 0.0 0.00 2.03 0.00 49 1011.4
20260905043017 21 269 0.0 1.6 0.00 2.03 0.00 49 1011.5
20260905041514 21 262 1.6 3.2 0.00 2.03 0.00 49 1011.5
20260905040011 21 276 0.0 1.6 0.00 2.03 0.00 48 1011.7
20260905034508 21 269 0.0 1.6 0.00 3.33 2.03 48 1011.9
20260905033013 22 274 1.6 3.2 0.00 3.33 2.03 49 1012.0
20260905031615 21 285 0.0 4.8 0.00 3.33 2.03 49 1011.9
20260905030002 21 241 0.0 0.0 0.00 3.33 2.03 49 1011.8
20260905024601 21 228 0.0 1.6 0.00 3.33 2.03 49 1011.8
20260905023124 21 237 0.0 3.2 0.00 3.33 2.03 49 1011.9
20260905021556 21 240 0.0 1.6 0.00 3.33 2.03 48 1011.6